ラインムート第1彗星

30P/Reinmuth 1 (2017)

English version
Home page
Updated on August 28, 2018

---------------------------------------------------------------------

・ プロフィール

・ 写真集

・ 軌道要素

Epoch 2017 Sept. 4.0 TT = JDT 2458000.5
T 2017 Aug. 19.17731 TT                                 MPCW
q   1.8766889            (2000.0)            P               Q
n   0.13470756     Peri.   13.29169     -0.67993498     -0.72291336
a   3.7688432      Node   119.70385     +0.65917142     -0.67596254
e   0.5020517      Incl.    8.12887     +0.32121871     -0.14307661
P   7.32
From 2617 observations 1979 Oct. 23-2018 Apr. 25, mean residual 0".8.
     Nongravitational parameters A1 = +0.16, A2 = -0.0119.

・ 星図

・ 光度変化

        m1 = 10.5 + 5 logΔ + 13.0 log r

---------------------------------------------------------------------

軌道要素はM.P.E.C. 2018-H105に掲載されたものです。
星図はステラナビゲータ Ver.10 (アストロアーツ) で作成したものです。
光度グラフはComet for Windowsで作成したものです。

---------------------------------------------------------------------

Copyright(C) Seiichi Yoshida (comet@aerith.net). All rights reserved.